« Back
NWS Peachtree City, Ga » Text Product » GA Regional Weather Roundup


Printer-friendly Version
Current Version              Previous Versions:   1  2  3  4  5  6  7  8  9  

Regional Weather Roundup

088
ASUS42 KFFC 010303
RWRGA
WEATHER ROUNDUP FOR GEORGIA
NATIONAL WEATHER SERVICE PEACHTREE CITY GA
1100 PM EDT FRI OCT 31 2014

NOTE: "FAIR" INDICATES FEW OR NO CLOUDS BELOW 12,000 FEET WITH NO
SIGNIFICANT WEATHER AND/OR OBSTRUCTIONS TO VISIBILITY.

* = USE WITH CAUTION. THE STATIONS MARKED WITH AN ASTERISK MAY NOT
REPORT WEATHER SUCH AS PRECIPITATION, FOG, OR THUNDER AND ARE NOT
QUALITY CONTROLLED BY NWS.

THE REMARK "TC" DENOTES TEMPERATURE READING IN DEGREES CELSIUS.

GAZ001>058-010400-
NORTH GEORGIA

CITY           SKY/WX    TMP DP  RH WIND       PRES   REMARKS
ATLANTA        CLOUDY    41  33  73 NW24G32   29.98R
ATHENS         CLOUDY    50  41  71 W10G22    29.86R
CHAMBLEE       CLOUDY    40  31  70 NW21G30   29.98R WCI  30
PEACHTREE CITY CLOUDY    46  35  65 NW18G32   30.00R
ROME           MOCLDY    41  27  57 N9G18     30.06R
WEST ATLANTA   CLOUDY    41  31  67 NW12G26   30.00R
GAINESVILLE    CLOUDY    43  32  65 NW20G29   29.91R
CARTERSVILLE   CLOUDY    41  29  62 NW9       30.05R


CITY           SKY/WX    TMP DP  RH WIND       PRES   REMARKS
DALTON*        MOCLDY    39  32  75 NW13G18   30.03S WCI  32
MARIETTA       MOCLDY    39  33  78 NW13G23   29.99R WCI  32
KENNESAW*      MOCLDY    39  28  65 NW14G23   30.02R WCI  31
$$

GAZ059>098-102>109-010400-
CENTRAL GEORGIA

CITY           SKY/WX    TMP DP  RH WIND       PRES   REMARKS
AUGUSTA-BUSH   CLEAR     56  41  57 W9        29.82R
AUGUSTA-DANIEL CLEAR     57  41  55 W7        29.82S
COLUMBUS       MOCLDY    51  40  65 N28G36    29.98R
MACON          PTCLDY    52  44  74 NW10      29.90R
ROBINS AFB     CLEAR     52  44  72 NW12      29.86S


CITY           SKY/WX    TMP DP  RH WIND       PRES   REMARKS
LAGRANGE*      CLOUDY    49  38  66 N21G26    30.02R
SYLVANIA*      CLEAR     61  51  71 CALM      29.83F
MILLEDGEVILLE* CLOUDY    55  48  76 W12       29.87S
$$

GAZ099>101-110>166-010400-
SOUTH GEORGIA

CITY           SKY/WX    TMP DP  RH WIND       PRES   REMARKS
SAVANNAH       MOCLDY    59  44  57 W6        29.83R
VALDOSTA       LGT RAIN  57  41  55 CALM      29.91R
ALMA           PTCLDY    57  42  57 NW7       29.87S
ST SIMONS      PTCLDY    62  44  51 NW8       29.85R
FT STEWART     CLEAR     60  42  51 NW7       29.83R
ALBANY         CLEAR     54  46  74 NW6       29.95R
HUNTER AFB     PTCLDY    59  45  58 W13       29.81S
MOODY AFB      CLOUDY    59  44  56 NW8       29.90R
BRUNSWICK      CLEAR     59  43  55 W5        29.86R


CITY           SKY/WX    TMP DP  RH WIND       PRES   REMARKS
BAINBRIDGE*    PTCLDY    55  54  94 W5        29.95S
MOULTRIE*      CLEAR     57  48  72 CALM      29.93R
VIDALIA*       CLEAR     55  45  67 W5        29.86S
WAYCROSS*      CLEAR     60  46  60 NW5       29.87S
DOUGLAS*       MOCLDY    61  41  48 NW6       29.90S
$$



USA.gov is the U.S. government's official web portal to all federal, state and local government web resources and services.